Location: Gisborne
(38.6530°S, 178.0040°E)
Time: 15:31:28
(UTC+13:00)

H-2A R/B - Pass Details

Date: 24 January 2019
Orbit: 262 x 32958 km, 27.9° (Epoch: 16 February)

Event Time Altitude Azimuth Distance (km) Brightness Sun altitude
Rises 22:05:36 0° 312° (NW) 2,411 4.7 -16.4°
Reaches altitude 10° 22:07:03 10° 326° (NNW) 1,904 4.0 -16.6°
Maximum altitude 22:10:37 30° 31° (NNE) 1,873 3.4 -17.1°
Drops below altitude 10° 22:23:48 10° 84° (E) 7,249 6.5 -18.9°
Sets 22:40:11 0° 89° (E) 13,064 7.9 -21.1°
